Home > Weather > Swakopmund > Past weeks

Flag for Namibia Weather for the Past 2 Weeks in Swakopmund, Namibia

Now
63 °F

Mild.


Feels Like: 63 °F
Forecast: 65 / 74 °F
Wind: 7 mph from Southwest

Location: Walvis Bay

Current Time: Feb 14, 2016 at 2:26:35 AM

Latest Report: Feb 14, 2016 at 1:00 AM


Visibility: N/A

Pressure: 29.95 "Hg

Humidity: 88%

Dew point: 59 °F

Location of SwakopmundLocation

Historic Weather in Swakopmund — Graph

°F

Swakopmund Temperature Yesterday

Maximum temperature yesterday: 79 °F (at 5:00 PM)
Minimum temperature yesterday: 63 °F (at 12:00 AM)
Average temperature yesterday: 69 °F

High & Low Weather Summary for the Past Weeks

 TemperatureHumidityPressure
High90 °F (Jan 30, 2:00 PM)94% (Feb 12, 8:00 AM)30.07 "Hg (Feb 12, 8:00 AM)
Low59 °F (Feb 12, 5:00 AM)38% (Jan 30, 2:00 PM)29.77 "Hg (Jan 31, 5:00 PM)
Average70 °F73%29.94 "Hg
* Reported Jan 30 1:00 AM — Feb 14 1:00 AM, Swakopmund, Weather by CustomWeather, © 2016

Note: Actual official high and low records may vary slightly from our data, if they occured in-between our weather recording intervals... More about our weather records

Advertising

Swakopmund Weather History for the Previous 24 Hours

 ConditionsComfort  
Time TempWeatherWind HumidityBarometerVisibility
1:00 AM
Sun, Feb 14
63 °FMild.7 mph88%29.95 "HgN/A
12:00 AM63 °FMild.9 mph88%29.95 "HgN/A
11:00 PM
Sat, Feb 13
64 °FMild.8 mph88%29.95 "HgN/A
10:00 PM64 °FMild.12 mph88%29.95 "HgN/A
9:00 PM66 °FMild.14 mph83%29.92 "HgN/A
8:00 PM68 °FMild.17 mph78%29.92 "HgN/A
7:00 PM72 °FMild.21 mph69%29.89 "HgN/A
6:00 PM77 °FWarm.22 mph57%29.86 "HgN/A
5:00 PM79 °FWarm.20 mph54%29.89 "HgN/A
4:00 PM77 °FWarm.16 mph54%29.89 "HgN/A
3:00 PM77 °FWarm.12 mph54%29.89 "HgN/A
2:00 PM77 °FSunny.9 mph57%29.92 "Hg10 mi
1:00 PM75 °FSunny.12 mph57%29.95 "Hg10 mi
12:00 PM75 °FSunny.8 mph54%29.98 "Hg10 mi
11:00 AM72 °FMild.5 mph61%29.98 "HgN/A
10:00 AM68 °FPartly sunny.6 mph73%30.01 "HgN/A
9:00 AM66 °FMild.3 mph78%30.01 "HgN/A
8:00 AM64 °FOvercast.2 mph83%29.98 "HgN/A
7:00 AM64 °FOvercast.1 mph83%29.95 "HgN/A
6:00 AM64 °FLow clouds.1 mph83%29.95 "HgN/A
5:00 AM64 °FLow clouds.2 mph88%29.95 "HgN/A
4:00 AM63 °FMild.2 mph94%29.95 "HgN/A
3:00 AM63 °FMild.3 mph88%29.95 "HgN/A
2:00 AM63 °FMild.1 mph88%29.95 "HgN/A
Weather by CustomWeather, © 2016

See weather overviewHow to use our weather pages